This is the latest recevied weather packets stored in our database for station/object WY7ATH-2. If no packets are shown the sender has not sent any weather packets the latest 10 day(s).
| Time | Temp. | Humidity | Pressure | Rain* | Wind** | Luminosity | Snow |
|---|---|---|---|---|---|---|---|
| 1788038806 | 16.11° C | - | - | 4.83 mm | 3.13 m/s, 252° | - | - |
| 1788038209 | 15° C | - | - | 4.83 mm | 5.36 m/s, 319° | - | - |
| 1788037612 | 15° C | - | - | 4.83 mm | 8.49 m/s, 229° | - | - |
| 1788037012 | 15° C | - | - | 10.41 mm | 5.81 m/s, 236° | - | - |
| 1788035822 | 25° C | - | - | 10.41 mm | 2.68 m/s, 311° | - | - |
| 1788034623 | 27.22° C | - | - | 10.41 mm | 6.71 m/s, 276° | - | - |
| 1788033426 | 28.33° C | - | - | 7.62 mm | 8.05 m/s, 163° | - | - |
| 1788032832 | 30.56° C | - | - | 7.62 mm | 4.92 m/s, 253° | - | - |
| 1788031635 | 28.89° C | - | - | 7.62 mm | 7.6 m/s, 215° | - | - |
| 1788031038 | 27.22° C | - | - | 7.62 mm | 4.47 m/s, 271° | - | - |
| 1788029243 | 27.22° C | - | - | 6.6 mm | 0.89 m/s, 266° | - | - |
| 1788028049 | 26.67° C | - | - | 6.6 mm | 4.02 m/s, 284° | - | - |
| 1788027452 | 26.67° C | - | - | 6.6 mm | 3.13 m/s, 260° | - | - |
| 1788026855 | 25.56° C | - | - | 6.6 mm | 4.47 m/s, 256° | - | - |
| 1788026254 | 25° C | - | - | 3.05 mm | 4.92 m/s, 250° | - | - |
| 1788025657 | 24.44° C | - | - | 3.05 mm | 6.26 m/s, 219° | - | - |
| 1788025060 | 23.89° C | - | - | 3.05 mm | 7.6 m/s, 180° | - | - |
| 1788024463 | 25° C | - | - | 3.05 mm | 6.26 m/s, 204° | - | - |
| 1788023269 | 23.89° C | - | - | 3.05 mm | 6.26 m/s, 218° | - | - |
| 1788022072 | 22.22° C | - | - | 6.35 mm | 5.81 m/s, 255° | - | - |
| 1788021474 | 21.67° C | - | - | 6.35 mm | 8.05 m/s, 276° | - | - |
| 1788020878 | 21.67° C | - | - | 6.35 mm | 6.71 m/s, 245° | - | - |
| 1788020280 | 21.11° C | - | - | 6.35 mm | 8.94 m/s, 246° | - | - |
| 1788019083 | 21.11° C | - | - | 7.11 mm | 9.83 m/s, 221° | - | - |
| 1788018486 | 21.67° C | - | - | 7.11 mm | 7.15 m/s, 239° | - | - |
* Rain latest hour (hover to see other rain measurements)
** Current wind speed in m/s (hover to see current wind gust speed)